Satellite: NOAA-12 Catalog number: 21263 Epoch time: 12298.96890928 Element set: 0591 Inclination: 098.7217 deg RA of node: 319.9796 deg Eccentricity: 0.0013696 Arg of perigee: 180.4048 deg Mean anomaly: 179.7126 deg Mean motion: 14.25525220 rev/day Decay rate: 4.7e-07 rev/day^2 Epoch rev: 11504 Checksum: 327
Satellite: MET-3/5 Catalog number: 21655 Epoch time: 12298.82618126 Element set: 0001 Inclination: 082.5577 deg RA of node: 060.5905 deg Eccentricity: 0.0013027 Arg of perigee: 003.2768 deg Mean anomaly: 356.8437 deg Mean motion: 13.17038863 rev/day Decay rate: 3.25e-06 rev/day^2 Epoch rev: 01871 Checksum: 295
Satellite: MET-2/21 Catalog number: 22782 Epoch time: 12298.59368179 Element set: 562 Inclination: 082.5457 deg RA of node: 289.8344 deg Eccentricity: 0.0023347 Arg of perigee: 146.4347 deg Mean anomaly: 213.8293 deg Mean motion: 13.83690022 rev/day Decay rate: 1.8e-07 rev/day^2 Epoch rev: 96706 Checksum: 336
Satellite: OKEAN-4 Catalog number: 23317 Epoch time: 12299.91578919 Element set: 36 Inclination: 082.5370 deg RA of node: 268.9600 deg Eccentricity: 0.0019396 Arg of perigee: 282.8876 deg Mean anomaly: 077.0173 deg Mean motion: 14.84048648 rev/day Decay rate: 2.370e-05 rev/day^2 Epoch rev: 97419 Checksum: 349
Satellite: NOAA-14 Catalog number: 23455 Epoch time: 12298.90415422 Element set: 0080 Inclination: 098.8221 deg RA of node: 020.7303 deg Eccentricity: 0.0008943 Arg of perigee: 311.8548 deg Mean anomaly: 048.1856 deg Mean motion: 14.13877992 rev/day Decay rate: 1.42e-06 rev/day^2 Epoch rev: 91912 Checksum: 302
Satellite: NOAA-15 Catalog number: 25338 Epoch time: 12298.94502967 Element set: 0453 Inclination: 098.7034 deg RA of node: 284.7197 deg Eccentricity: 0.0011606 Arg of perigee: 090.9741 deg Mean anomaly: 269.2792 deg Mean motion: 14.25135684 rev/day Decay rate: 2.08e-06 rev/day^2 Epoch rev: 75133 Checksum: 331
Satellite: RESURS Catalog number: 25394 Epoch time: 12298.94338910 Element set: 0231 Inclination: 098.3333 deg RA of node: 280.4378 deg Eccentricity: 0.0000786 Arg of perigee: 177.9611 deg Mean anomaly: 182.1572 deg Mean motion: 14.24303681 rev/day Decay rate: 9.5e-07 rev/day^2 Epoch rev: 74287 Checksum: 312
Satellite: FENGYUN1 Catalog number: 25730 Epoch time: 12298.88793232 Element set: 724 Inclination: 098.8541 deg RA of node: 255.6923 deg Eccentricity: 0.0021233 Arg of perigee: 352.7010 deg Mean anomaly: 007.3848 deg Mean motion: 14.09797677 rev/day Decay rate: 1.031e-05 rev/day^2 Epoch rev: 69288 Checksum: 324
Satellite: OKEAN-0 Catalog number: 25860 Epoch time: 12298.96202779 Element set: 0787 Inclination: 097.9534 deg RA of node: 259.0832 deg Eccentricity: 0.0001069 Arg of perigee: 101.5581 deg Mean anomaly: 258.5746 deg Mean motion: 14.74357730 rev/day Decay rate: 1.078e-05 rev/day^2 Epoch rev: 71369 Checksum: 339
Satellite: NOAA-16 Catalog number: 26536 Epoch time: 12298.71246249 Element set: 0943 Inclination: 099.0794 deg RA of node: 342.7408 deg Eccentricity: 0.0011400 Arg of perigee: 079.5961 deg Mean anomaly: 280.6492 deg Mean motion: 14.12795042 rev/day Decay rate: -9.2e-07 rev/day^2 Epoch rev: 62332 Checksum: 316
Satellite: NOAA-17 Catalog number: 27453 Epoch time: 12298.75892681 Element set: 0885 Inclination: 098.3285 deg RA of node: 319.1976 deg Eccentricity: 0.0012408 Arg of perigee: 133.0520 deg Mean anomaly: 227.1692 deg Mean motion: 14.24497968 rev/day Decay rate: 1.06e-06 rev/day^2 Epoch rev: 53720 Checksum: 335
Satellite: NOAA-18 Catalog number: 28654 Epoch time: 12298.76944302 Element set: 0366 Inclination: 099.0641 deg RA of node: 258.0463 deg Eccentricity: 0.0014603 Arg of perigee: 147.4430 deg Mean anomaly: 212.7628 deg Mean motion: 14.11718315 rev/day Decay rate: -4.0e-08 rev/day^2 Epoch rev: 38284 Checksum: 302
Satellite: NOAA-19 Catalog number: 33591 Epoch time: 12298.73559026 Element set: 0554 Inclination: 098.8758 deg RA of node: 236.9831 deg Eccentricity: 0.0014456 Arg of perigee: 018.3875 deg Mean anomaly: 341.7805 deg Mean motion: 14.11407639 rev/day Decay rate: 5.12e-06 rev/day^2 Epoch rev: 19128 Checksum: 336
/EX SB KEPS @ AMSAT $ORB12299.M Orbital Elements 12299.MISC
HR AMSAT ORBITAL ELEMENTS FOR MANNED AND MISCELLANEOUS SATELLITES FROM WA5QGD FORT WORTH,TX October 25, 2012 BID: ORB12299.M TO ALL RADIO AMATEURS BT
Satellite: HUBBLE Catalog number: 20580 Epoch time: 12299.23142079 Element set: 95 Inclination: 028.4704 deg RA of node: 012.2754 deg Eccentricity: 0.0003274 Arg of perigee: 010.9575 deg Mean anomaly: 349.1256 deg Mean motion: 15.02951230 rev/day Decay rate: 3.436e-05 rev/day^2 Epoch rev: 3430 Checksum: 261
Satellite: ISS Catalog number: 25544 Epoch time: 12299.90998762 Element set: 527 Inclination: 051.6474 deg RA of node: 192.0129 deg Eccentricity: 0.0016608 Arg of perigee: 208.9043 deg Mean anomaly: 237.0261 deg Mean motion: 15.51079814 rev/day Decay rate: 2.3832e-04 rev/day^2 Epoch rev: 79832 Checksum: 321
Satellite: CO-58 Catalog number: 28895 Epoch time: 12299.64510482 Element set: 311 Inclination: 097.8934 deg RA of node: 160.0577 deg Eccentricity: 0.0018830 Arg of perigee: 099.3717 deg Mean anomaly: 260.9631 deg Mean motion: 14.60810595 rev/day Decay rate: 1.240e-05 rev/day^2 Epoch rev: 37270 Checksum: 326
Satellite: FALCON Catalog number: 30776 Epoch time: 12298.95388384 Element set: 0468 Inclination: 035.4315 deg RA of node: 203.6666 deg Eccentricity: 0.0002388 Arg of perigee: 039.8042 deg Mean anomaly: 320.2875 deg Mean motion: 15.08617340 rev/day Decay rate: 7.912e-05 rev/day^2 Epoch rev: 30985 Checksum: 322
Satellite: MAST Catalog number: 31126 Epoch time: 12299.88519657 Element set: 590 Inclination: 097.8750 deg RA of node: 303.3570 deg Eccentricity: 0.0094648 Arg of perigee: 063.5365 deg Mean anomaly: 297.5505 deg Mean motion: 14.54306444 rev/day Decay rate: 1.123e-05 rev/day^2 Epoch rev: 29326 Checksum: 320
Satellite: CAPE1 Catalog number: 31130 Epoch time: 12298.72049767 Element set: 600 Inclination: 097.8875 deg RA of node: 298.5885 deg Eccentricity: 0.0102531 Arg of perigee: 080.9751 deg Mean anomaly: 280.3028 deg Mean motion: 14.53127363 rev/day Decay rate: 1.289e-05 rev/day^2 Epoch rev: 29258 Checksum: 322
Satellite: COMPASS Catalog number: 32787 Epoch time: 12298.77716772 Element set: 0448 Inclination: 097.7861 deg RA of node: 357.1777 deg Eccentricity: 0.0015169 Arg of perigee: 001.4841 deg Mean anomaly: 358.6401 deg Mean motion: 14.84534236 rev/day Decay rate: 3.235e-05 rev/day^2 Epoch rev: 24303 Checksum: 324
Satellite: AAUSAT2 Catalog number: 32788 Epoch time: 12299.86255009 Element set: 437 Inclination: 097.7863 deg RA of node: 358.6962 deg Eccentricity: 0.0013895 Arg of perigee: 000.4477 deg Mean anomaly: 359.6723 deg Mean motion: 14.84914262 rev/day Decay rate: 4.226e-05 rev/day^2 Epoch rev: 24322 Checksum: 340
Satellite: DO-64 Catalog number: 32789 Epoch time: 12298.82219675 Element set: 0456 Inclination: 097.7997 deg RA of node: 000.2325 deg Eccentricity: 0.0014181 Arg of perigee: 356.7258 deg Mean anomaly: 003.3853 deg Mean motion: 14.86776910 rev/day Decay rate: 7.073e-05 rev/day^2 Epoch rev: 24313 Checksum: 337
Satellite: CO-66 Catalog number: 32791 Epoch time: 12299.76546197 Element set: 435 Inclination: 097.7850 deg RA of node: 357.7707 deg Eccentricity: 0.0015120 Arg of perigee: 359.3202 deg Mean anomaly: 000.7943 deg Mean motion: 14.83861170 rev/day Decay rate: 2.732e-05 rev/day^2 Epoch rev: 24310 Checksum: 314
Satellite: RS-30 Catalog number: 32953 Epoch time: 12299.76097043 Element set: 264 Inclination: 082.5045 deg RA of node: 213.9362 deg Eccentricity: 0.0020040 Arg of perigee: 025.7032 deg Mean anomaly: 334.5047 deg Mean motion: 12.43028919 rev/day Decay rate: 1.0e-07 rev/day^2 Epoch rev: 20078 Checksum: 265
Satellite: PHARMSAT Catalog number: 35002 Epoch time: 12226.86484473 Element set: 78 Inclination: 040.4341 deg RA of node: 050.6671 deg Eccentricity: 0.0012079 Arg of perigee: 300.9773 deg Mean anomaly: 059.0492 deg Mean motion: 16.39309245 rev/day Decay rate: 7.728342e-02 rev/day^2 Epoch rev: 18355 Checksum: 302
Satellite: METEOR-M Catalog number: 35865 Epoch time: 12299.75559991 Element set: 902 Inclination: 098.6383 deg RA of node: 351.5241 deg Eccentricity: 0.0003298 Arg of perigee: 043.5461 deg Mean anomaly: 316.5975 deg Mean motion: 14.21872540 rev/day Decay rate: 1.2e-07 rev/day^2 Epoch rev: 16115 Checksum: 312
Satellite: RS-38 Catalog number: 35869 Epoch time: 12299.75697313 Element set: 885 Inclination: 098.6337 deg RA of node: 351.4982 deg Eccentricity: 0.0005421 Arg of perigee: 041.5648 deg Mean anomaly: 318.5938 deg Mean motion: 14.22094669 rev/day Decay rate: 7.9e-07 rev/day^2 Epoch rev: 16117 Checksum: 358
Satellite: JUGNU Catalog number: 37839 Epoch time: 12298.34604136 Element set: 0255 Inclination: 019.9590 deg RA of node: 295.7508 deg Eccentricity: 0.0018994 Arg of perigee: 204.5637 deg Mean anomaly: 155.3863 deg Mean motion: 14.12094638 rev/day Decay rate: 6.20e-06 rev/day^2 Epoch rev: 05352 Checksum: 319
Satellite: SRMSAT Catalog number: 37841 Epoch time: 12298.36427003 Element set: 0257 Inclination: 019.9686 deg RA of node: 303.0543 deg Eccentricity: 0.0012252 Arg of perigee: 170.0246 deg Mean anomaly: 190.0410 deg Mean motion: 14.10172603 rev/day Decay rate: 2.64e-06 rev/day^2 Epoch rev: 05345 Checksum: 251
Satellite: RAX-2 Catalog number: 37853 Epoch time: 12298.94046824 Element set: 0334 Inclination: 101.7039 deg RA of node: 038.2514 deg Eccentricity: 0.0243173 Arg of perigee: 340.6149 deg Mean anomaly: 018.5900 deg Mean motion: 14.81163021 rev/day Decay rate: 5.135e-05 rev/day^2 Epoch rev: 05360 Checksum: 275
